Location: Go?cza
(50.3372°N, 19.9313°E)
Time: 22:02:35
(UTC+00:00)

Helios 1A Rocket - Pass Details

Date: 23 May 2024
Orbit: 520 x 543 km, 98.3° (Epoch: 22 June)

Event Time Altitude Azimuth Distance (km) Brightness Sun altitude
Exits shadow 00:10:39 31° 221° (SW) 949 3.5 -16.1°
Maximum altitude 00:11:47 40° 261° (W) 807 3.4 -16.0°
Drops below altitude 10° 00:15:27 10° 332° (NNW) 1,794 6.0 -15.8°
Sets 00:17:40 0° 340° (NNW) 2,685 7.1 -15.6°
